This is the latest recevied weather packets stored in our database for station/object W5HKR. If no packets are shown the sender has not sent any weather packets the latest 10 day(s).
| Time | Temp. | Humidity | Pressure | Rain* | Wind** | Luminosity | Snow |
|---|---|---|---|---|---|---|---|
| 1778014705 | 30.56° C | 65% | 978.7 hPa | 0 mm | - | - | - |
| 1778014405 | 30.56° C | 65% | 978.7 hPa | 0 mm | - | - | - |
| 1778014316 | 30.56° C | 66% | 978.7 hPa | 0 mm | - | - | - |
| 1778014105 | 18.33° C | 91% | 990.6 hPa | 0 mm | - | - | - |
| 1778013506 | 30.56° C | 64% | 978.9 hPa | 0 mm | - | - | - |
| 1778013237 | 18.33° C | 91% | 990.6 hPa | 0 mm | - | - | - |
| 1778013206 | 18.33° C | 91% | 990.6 hPa | 0 mm | - | - | - |
| 1778012907 | 30.56° C | 65% | 978.9 hPa | 0 mm | - | - | - |
| 1778012605 | 30° C | 65% | 979 hPa | 0 mm | - | - | - |
| 1778012308 | 30.56° C | 65% | 979.3 hPa | 0 mm | - | - | - |
| 1778012157 | 18.33° C | 91% | 990.6 hPa | 0 mm | - | - | - |
| 1778012005 | 18.33° C | 91% | 990.6 hPa | 0 mm | - | - | - |
| 1778011705 | 30° C | 66% | 979.2 hPa | 0 mm | - | - | - |
| 1778011407 | 30° C | 68% | 979.1 hPa | 0 mm | - | - | - |
| 1778011077 | 30° C | 67% | 978.8 hPa | 0 mm | - | - | - |
| 1778010805 | 30° C | 68% | 979.5 hPa | 0 mm | - | - | - |
| 1778010206 | 29.44° C | 67% | 979.3 hPa | 0 mm | - | - | - |
| 1778009996 | 29.44° C | 67% | 979.6 hPa | 0 mm | - | - | - |
| 1778009907 | 18.33° C | 91% | 990.6 hPa | 0 mm | - | - | - |
| 1778009606 | 29.44° C | 67% | 979.4 hPa | 0 mm | - | - | - |
| 1778009005 | 18.33° C | 91% | 990.6 hPa | 0 mm | - | - | - |
| 1778008917 | 18.33° C | 91% | 990.6 hPa | 0 mm | - | - | - |
| 1778008706 | 18.33° C | 91% | 990.6 hPa | 0 mm | - | - | - |
| 1778008405 | 28.33° C | 71% | 980 hPa | 0 mm | - | - | - |
| 1778008107 | 18.33° C | 91% | 990.6 hPa | 0 mm | - | - | - |
* Rain latest hour (hover to see other rain measurements)
** Current wind speed in m/s (hover to see current wind gust speed)